Date,TemperatureHighF,TemperatureAvgF,TemperatureLowF,DewpointHighF,DewpointAvgF,DewpointLowF,HumidityHigh,HumidityAvg,HumidityLow,PressureMaxIn,PressureMinIn,WindSpeedMaxMPH,WindSpeedAvgMPH,GustSpeedMaxMPH,PrecipitationSumIn
2013-1-1,66.0,45.4,34.0,45.5,34.8,27.1,91,69,29,30.17,30.06,4,1,5,0.12
2013-1-2,58.3,50.7,46.2,43.7,40.9,37.9,89,70,49,30.26,30.03,7,2,11,0.13
2013-1-3,70.9,52.1,41.7,41.4,37.6,34.2,87,62,29,30.50,30.26,5,2,8,0.00
2013-1-4,66.6,47.9,37.2,39.2,36.0,32.4,93,67,32,30.50,30.29,4,1,4,0.00
2013-1-5,64.8,47.0,36.1,41.9,37.2,31.5,97,72,39,30.29,30.09,7,1,8,0.00
2013-1-6,68.2,48.9,36.0,45.1,39.0,32.5,99,73,31,30.23,30.09,4,1,5,0.00
2013-1-7,73.4,50.8,39.9,43.0,38.4,34.5,92,68,27,30.20,30.06,5,1,8,0.00
2013-1-8,59.0,45.3,36.9,43.2,37.9,31.6,95,77,46,30.29,30.20,4,1,4,0.00
2013-1-9,62.2,50.1,43.0,42.4,38.4,33.1,91,67,37,30.20,30.09,4,1,5,0.00
2013-1-10,54.5,49.5,45.5,47.3,41.9,36.9,95,76,59,30.12,29.67,4,1,5,0.18
2013-1-11,59.4,46.9,41.2,49.6,41.4,36.7,99,83,53,29.70,29.50,16,2,16,0.17
2013-1-12,68.2,48.0,34.9,43.5,37.5,31.5,99,71,32,29.85,29.67,4,1,7,0.00
2013-1-13,71.4,52.7,45.9,68.5,45.8,38.8,95,78,58,29.85,29.58,15,3,26,2.02
2013-1-14,86.0,57.1,47.5,78.1,47.5,36.3,90,71,51,29.73,29.55,11,4,17,0.16
2013-1-15,76.3,49.5,40.8,69.6,36.4,26.4,89,63,34,29.73,29.41,9,2,13,0.14
2013-1-16,47.8,42.6,39.4,45.3,39.3,34.2,95,88,77,29.41,29.26,14,3,14,2.26
2013-1-17,55.4,42.7,37.9,39.4,34.5,31.8,90,74,49,29.29,29.11,17,3,19,0.07
2013-1-18,55.0,43.2,35.1,34.0,28.8,24.4,84,59,34,29.47,29.17,12,5,20,0.02
2013-1-19,56.3,40.6,31.5,49.6,33.9,24.6,87,77,67,29.50,29.35,9,2,12,0.16
2013-1-20,73.9,57.2,51.3,69.4,51.2,44.4,92,81,62,29.35,29.26,7,4,13,0.82
2013-1-21,62.8,51.5,45.3,49.8,41.9,35.4,94,71,44,29.38,29.20,9,2,16,0.21
2013-1-22,65.1,48.9,40.5,43.3,35.8,25.2,94,64,31,29.61,29.35,16,4,21,0.00
2013-1-23,55.6,45.1,39.6,51.4,38.7,33.1,95,79,61,29.64,29.38,9,3,11,0.79
2013-1-24,63.1,47.4,41.5,41.4,37.1,32.4,95,70,37,29.41,29.23,5,2,10,0.21
2013-1-25,61.2,45.9,35.4,36.5,30.6,25.5,91,59,31,29.47,29.26,11,3,16,0.00
2013-1-26,61.9,43.7,33.3,28.0,24.5,19.6,77,50,25,29.70,29.47,8,2,11,0.00
2013-1-27,60.1,40.5,30.7,31.8,22.0,-99.9,79,55,28,30.03,29.70,6,2,8,0.00
2013-1-28,47.3,43.7,36.9,44.8,38.7,29.8,98,83,63,30.09,29.85,8,3,14,0.76
2013-1-29,69.6,48.3,36.9,45.9,38.6,30.6,99,74,27,30.26,30.09,7,1,9,0.00
2013-1-30,70.0,50.9,37.2,46.4,37.9,30.7,95,67,28,30.26,30.20,6,1,8,0.00
2013-1-31,78.6,50.9,44.1,48.9,26.9,-99.9,90,57,26,30.23,30.15,9,2,10,0.00
2013-2-1,69.8,55.8,44.6,48.0,44.0,38.1,89,67,33,30.20,29.76,7,2,11,0.00
2013-2-2,66.0,56.0,49.3,47.7,44.8,31.8,82,67,47,29.76,29.32,14,5,16,0.10
2013-2-3,58.6,47.9,39.6,38.3,30.4,19.2,79,53,30,30.00,29.35,9,3,14,0.96
2013-2-4,67.8,46.1,33.1,33.4,24.7,16.9,73,46,23,30.20,30.00,10,2,10,2.97
2013-2-5,55.0,47.6,37.8,45.7,37.4,28.2,83,68,53,30.17,29.82,7,2,12,0.00
2013-2-6,60.4,50.1,41.2,45.1,35.6,22.3,88,61,26,29.82,29.53,18,5,21,0.07
2013-2-7,62.8,43.5,37.0,43.0,35.2,29.1,93,75,35,29.58,29.47,11,3,13,1.21
2013-2-8,58.8,50.2,37.4,30.2,24.1,17.1,74,38,26,29.79,29.64,10,4,15,0.00
2013-2-9,57.6,41.9,32.9,30.0,20.7,12.6,75,46,25,29.94,29.79,8,3,13,0.00
2013-2-10,59.7,39.9,28.8,23.7,18.6,10.2,71,45,25,30.00,29.91,7,2,11,0.00
2013-2-11,87.3,52.9,35.2,82.8,39.0,11.8,88,61,31,30.00,29.55,11,5,20,2.87
2013-2-12,84.2,51.4,40.3,79.9,41.6,28.9,99,72,33,29.73,29.58,4,1,11,0.01
2013-2-13,63.9,45.4,35.8,37.4,30.9,22.1,92,63,25,29.85,29.70,5,2,9,0.00
2013-2-14,67.1,46.9,33.6,31.3,27.9,23.9,81,53,23,30.03,29.85,6,2,9,0.00
2013-2-15,67.8,45.6,33.4,33.6,29.9,21.6,86,59,23,30.06,29.97,5,1,8,0.00
2013-2-16,69.8,48.4,36.1,37.0,31.4,25.0,84,58,22,30.12,30.03,8,2,11,0.00
2013-2-17,61.7,45.2,36.1,38.7,32.3,27.3,83,63,34,30.09,30.00,12,2,14,0.02
2013-2-18,66.6,44.6,35.8,35.4,32.7,27.7,89,66,30,30.03,29.97,6,2,9,0.00
2013-2-19,68.9,45.8,31.6,30.6,25.7,-99.9,87,53,22,30.06,29.94,7,2,8,0.00
2013-2-20,63.5,44.8,32.2,33.1,27.7,22.6,79,55,25,30.03,29.94,6,1,6,0.00
2013-2-21,68.5,48.6,34.0,42.1,30.9,23.2,83,56,22,29.94,29.70,9,2,11,0.06
2013-2-22,59.7,51.4,46.8,45.9,41.4,36.9,87,69,49,29.70,29.47,11,3,12,0.03
2013-2-23,86.9,54.9,38.7,79.0,48.2,35.2,95,79,60,29.64,29.41,21,4,21,1.23
2013-2-24,53.4,44.3,37.0,36.7,30.2,20.3,83,60,31,29.97,29.64,16,4,19,0.19
2013-2-25,42.4,39.8,37.2,39.4,35.4,28.9,96,85,63,30.09,29.94,7,2,11,1.40
2013-2-26,64.2,45.2,35.2,43.9,34.3,24.8,99,71,27,30.15,30.06,5,1,6,0.00
2013-2-27,67.3,48.5,33.4,37.2,28.6,21.2,96,54,23,30.23,30.15,6,2,10,0.00
2013-2-28,70.5,48.7,33.3,37.6,31.0,25.2,85,56,22,30.26,30.17,8,1,10,0.00
2013-3-1,59.2,47.6,41.4,36.0,33.1,29.1,76,59,34,30.17,29.88,4,2,8,0.36
2013-3-2,68.4,53.4,46.2,37.9,29.8,-99.9,67,44,20,30.03,29.82,8,2,12,0.00
2013-3-3,73.6,52.2,37.8,41.5,32.2,24.6,70,50,23,30.12,30.03,9,2,12,0.00
2013-3-4,69.8,51.9,39.2,38.5,35.5,28.9,90,59,25,30.23,30.09,30,3,30,0.00
2013-3-5,63.7,51.2,40.1,38.5,33.9,24.4,85,56,26,30.23,30.00,7,2,10,0.03
2013-3-6,63.3,56.4,52.2,54.0,40.9,27.7,94,61,30,30.00,29.70,10,4,16,0.68
2013-3-7,68.5,58.2,53.1,58.3,51.3,46.9,97,80,51,29.82,29.70,6,2,12,0.06
2013-3-8,64.0,57.0,53.1,53.2,49.9,46.4,91,78,55,29.79,29.67,10,2,13,0.31
2013-3-9,72.9,60.2,51.8,52.0,45.6,32.7,94,63,28,29.82,29.70,8,3,12,0.04
2013-3-10,91.9,64.2,53.1,86.0,51.2,35.2,86,65,31,29.73,29.55,14,3,18,0.99
2013-3-11,91.9,63.9,47.7,86.0,52.8,37.4,94,69,36,29.64,29.58,15,4,21,0.40
2013-3-12,63.9,50.5,43.7,57.4,43.4,37.6,97,79,44,29.64,29.53,9,2,15,1.38
2013-3-13,56.3,47.5,41.5,47.7,43.3,40.5,99,86,59,29.55,29.32,5,1,8,0.60
2013-3-14,67.5,50.2,41.9,46.2,35.1,22.8,98,62,27,29.32,29.14,12,4,18,0.01
2013-3-15,66.6,48.9,38.7,29.8,23.0,7.9,67,39,20,29.88,29.32,7,3,13,0.00
2013-3-16,42.8,41.4,39.2,29.7,29.2,28.9,68,62,59,30.15,30.15,2,1,4,0.00
2013-3-17,52.7,46.7,37.9,41.5,30.6,25.0,73,54,35,30.15,29.79,6,3,10,0.05
2013-3-18,63.5,55.3,48.7,57.2,44.4,36.9,84,68,49,29.79,29.53,20,8,25,0.46
2013-3-19,65.3,55.4,45.5,39.6,37.0,32.2,70,52,36,29.85,29.70,15,8,22,0.00
2013-3-20,61.9,50.0,40.6,47.3,38.4,28.2,88,68,30,29.85,29.70,7,1,7,0.61
2013-3-21,71.2,56.7,46.0,47.1,34.6,22.1,88,49,22,30.00,29.67,12,4,16,0.02
2013-3-22,76.8,55.2,39.4,43.7,34.7,0.0,80,52,20,30.00,29.88,14,2,14,0.00
2013-3-23,69.6,55.3,42.4,45.5,40.4,33.8,88,62,30,29.97,29.82,8,2,12,0.00
2013-3-24,81.5,55.9,48.7,45.3,26.3,-99.9,84,42,20,29.82,29.47,9,2,15,4.88
2013-3-25,73.0,57.9,48.0,67.5,45.7,34.0,84,65,54,29.58,29.32,8,3,13,1.17
2013-3-26,60.6,44.6,44.8,49.3,23.1,-99.9,87,62,51,29.61,29.53,7,1,10,0.55
2013-3-27,70.5,50.6,43.9,45.7,24.6,-99.9,92,52,25,29.85,29.61,10,2,14,0.00
2013-3-28,61.3,36.1,51.3,49.5,-5.6,-99.9,87,46,60,29.91,29.82,6,1,11,0.15
2013-3-29,69.8,59.0,56.3,49.6,42.8,-99.9,77,60,46,29.91,29.79,8,3,13,0.00
2013-3-30,67.8,28.2,57.6,51.4,-33.0,-99.9,80,27,48,29.79,29.50,13,2,18,0.00
2013-3-31,65.3,48.1,51.6,52.0,22.6,-99.9,94,57,44,29.70,29.50,16,6,20,0.00
2013-4-1,64.8,34.1,52.2,47.3,-19.4,-99.9,73,29,31,29.76,29.55,0,0,0,0.00
2013-4-2,58.6,54.6,52.7,52.7,48.3,45.9,82,80,71,29.55,29.44,0,0,0,0.00
2013-4-3,52.7,52.7,52.7,46.6,46.6,46.6,80,80,80,29.47,29.47,0,0,0,0.00
2013-4-4,52.7,52.7,52.7,46.6,46.6,46.6,80,80,80,29.47,29.47,0,0,0,0.00
2013-4-5,55.2,51.9,52.7,46.6,44.2,-99.9,80,78,65,29.82,29.47,0,0,0,0.00
2013-4-6,72.9,31.2,52.2,45.3,-28.6,-99.9,72,25,29,29.82,29.76,9,1,11,0.00
2013-4-7,78.6,61.7,49.6,45.1,33.7,19.6,74,40,20,29.79,29.64,11,4,15,0.00
2013-4-8,72.1,55.9,43.5,41.0,28.9,19.6,59,38,21,29.91,29.79,13,4,16,0.00
2013-4-9,69.8,59.9,52.2,44.2,38.3,27.7,72,48,22,29.94,29.85,13,4,16,0.00
2013-4-10,72.1,61.0,51.8,43.5,40.4,31.5,67,49,28,30.06,29.91,12,4,14,0.00
2013-4-11,75.2,60.3,47.7,44.2,35.9,25.9,79,46,21,30.09,30.03,11,3,15,0.00
2013-4-12,74.1,62.9,52.9,47.5,41.1,32.7,70,47,25,30.06,29.97,9,4,16,0.00
2013-4-13,82.4,63.4,51.3,49.3,40.9,30.0,81,51,20,30.29,30.06,11,3,13,0.00
2013-4-14,81.1,67.0,57.2,49.3,39.2,27.7,75,43,20,30.35,30.29,11,4,13,0.00
2013-4-15,81.9,65.5,52.3,48.9,39.8,30.9,69,44,20,30.29,30.15,10,3,13,0.00
2013-4-16,82.4,66.1,52.2,51.1,41.6,29.8,83,47,20,30.20,30.15,11,2,14,0.00
2013-4-17,82.9,66.2,54.5,52.2,42.7,32.2,76,48,20,30.23,30.17,11,2,12,0.00
2013-4-18,84.2,67.4,52.3,51.3,40.5,27.7,77,44,20,30.20,30.09,11,3,14,0.00
2013-4-19,82.2,64.5,54.7,50.9,43.8,28.0,74,51,20,30.09,29.97,11,3,11,0.00
2013-4-20,67.5,60.0,54.5,53.8,41.1,33.3,79,51,32,30.09,30.00,11,3,12,0.00
2013-4-21,73.4,60.1,51.6,42.3,30.2,-99.9,63,37,21,30.09,29.97,12,4,15,0.00
2013-4-22,78.1,54.7,47.5,68.4,43.8,31.3,85,68,35,30.06,29.91,5,2,11,1.45
2013-4-23,73.0,59.2,48.4,47.3,39.4,27.7,85,53,21,30.29,30.06,8,2,12,0.11
2013-4-24,91.6,65.9,51.6,44.8,38.8,30.4,67,42,20,30.35,30.29,8,2,11,0.00
2013-4-25,90.0,70.3,58.5,45.1,41.0,34.2,59,39,20,30.32,30.20,7,2,11,0.00
2013-4-26,71.2,66.2,58.5,51.4,46.3,36.7,64,50,31,30.15,30.00,8,2,17,0.01
2013-4-27,70.0,61.2,54.0,53.8,47.6,44.1,76,62,44,30.00,29.79,12,4,21,0.05
2013-4-28,86.7,71.1,57.0,51.6,43.2,34.0,77,43,20,30.00,29.88,10,2,11,0.00
2013-4-29,93.0,77.1,63.1,47.8,40.3,30.6,56,30,20,30.06,29.97,8,3,14,0.00
2013-4-30,94.5,76.2,66.9,47.1,37.9,29.7,43,26,20,30.12,30.03,13,3,16,0.00
2013-5-1,86.9,72.1,62.2,54.1,42.8,31.1,70,39,20,30.12,30.03,10,2,12,0.13
2013-5-2,85.8,69.1,61.3,57.9,51.3,37.4,84,57,20,30.09,29.94,10,3,15,0.38
2013-5-3,92.1,71.8,56.3,51.8,45.3,35.6,76,44,20,30.00,29.91,12,3,13,0.00
2013-5-4,90.3,74.0,61.7,52.3,44.4,35.6,70,39,20,30.03,29.94,10,3,12,0.00
2013-5-5,82.4,68.1,62.2,55.0,49.6,40.5,73,54,24,30.06,29.97,7,2,8,0.37
2013-5-6,94.3,67.1,59.4,88.2,57.6,50.0,85,72,54,30.03,29.91,8,2,11,4.27
2013-5-7,73.6,64.2,60.1,53.4,50.4,45.0,79,64,41,30.06,29.85,8,3,10,0.02
2013-5-8,84.4,68.5,55.8,50.9,31.8,-99.9,80,35,20,29.88,29.85,4,2,6,0.00
2013-5-9,85.5,69.5,55.6,52.7,45.2,34.5,78,47,20,29.97,29.85,11,3,11,0.00
2013-5-10,74.1,67.0,61.7,56.8,52.6,43.9,81,61,34,29.97,29.91,8,3,11,0.00
2013-5-11,77.5,67.5,60.6,54.9,49.7,41.2,74,55,28,29.94,29.82,10,4,13,0.00
2013-5-12,80.4,69.2,54.9,50.9,43.6,33.6,74,43,20,29.88,29.82,10,5,12,0.00
2013-5-13,81.5,74.7,62.1,42.1,38.8,24.8,30,28,20,29.94,29.82,10,8,16,0.00
2013-5-14,83.7,68.3,51.1,51.6,35.4,23.5,69,33,20,29.97,29.85,9,2,13,0.00
2013-5-15,79.9,64.7,55.2,51.3,43.7,30.2,70,49,20,29.91,29.73,6,3,10,0.00
2013-5-16,78.3,69.1,60.8,61.0,49.0,41.0,89,51,29,29.91,29.67,10,4,15,0.42
2013-5-17,75.2,61.0,59.4,57.9,37.6,-99.9,77,52,24,30.00,29.67,12,4,17,0.36
2013-5-18,90.0,71.5,54.1,52.0,41.6,31.8,71,39,20,29.97,29.79,9,2,10,0.00
2013-5-19,75.0,67.6,61.5,53.4,42.6,29.5,68,43,21,30.06,29.79,14,6,16,0.00
2013-5-20,76.3,66.4,57.2,47.7,37.9,28.4,66,39,20,30.09,30.03,11,3,13,0.00
2013-5-21,74.3,63.6,55.6,51.4,41.2,30.0,78,47,21,30.09,29.82,6,2,13,0.15
2013-5-22,86.0,64.7,58.1,58.5,51.0,41.5,82,64,22,29.82,29.38,8,3,12,0.89
2013-5-23,72.1,61.2,57.4,54.0,51.1,38.8,84,72,32,29.67,29.41,9,3,17,0.45
2013-5-24,69.3,62.3,55.6,51.1,39.8,27.7,75,46,24,29.88,29.61,21,8,25,0.00
2013-5-25,69.1,59.5,54.1,40.6,34.3,25.7,55,40,22,29.88,29.79,19,7,27,0.00
2013-5-26,76.8,60.8,49.6,43.5,35.6,25.9,67,43,20,30.00,29.79,12,4,17,0.00
2013-5-27,75.9,62.6,54.1,46.2,36.8,-99.9,64,43,20,30.00,29.88,12,3,14,0.00
2013-5-28,84.2,66.4,56.8,47.3,40.1,28.8,68,43,20,29.91,29.64,13,3,16,0.00
2013-5-29,72.5,64.0,57.6,53.4,43.0,28.0,73,49,22,29.73,29.67,13,4,18,0.16
2013-5-30,67.3,61.0,53.2,45.9,40.5,34.7,71,49,31,29.73,29.70,15,7,19,0.15
2013-5-31,69.1,60.6,51.1,46.0,43.1,34.7,76,54,29,29.73,29.67,16,7,19,0.00
2013-6-1,77.2,62.0,55.4,54.9,45.1,36.0,83,56,24,29.79,29.67,8,2,13,0.64
2013-6-2,80.6,62.8,55.0,52.2,37.6,-99.9,78,49,21,29.94,29.76,11,3,15,0.01
2013-6-3,80.8,66.2,55.6,53.2,47.1,35.1,80,55,23,29.94,29.88,12,3,14,0.13
2013-6-4,83.7,67.3,58.8,54.7,49.3,35.1,81,58,20,30.00,29.88,13,4,18,0.10
2013-6-5,87.8,69.4,58.3,55.8,47.8,35.2,84,51,20,30.06,29.94,12,3,15,0.00
2013-6-6,88.3,71.3,57.4,50.0,44.3,35.1,72,42,20,30.06,29.97,12,3,14,0.00
2013-6-7,89.8,74.1,60.3,52.5,44.4,35.6,69,39,20,30.03,29.94,13,4,17,0.00
2013-6-8,87.8,73.1,61.3,54.7,45.8,36.1,69,42,20,30.00,29.91,12,3,14,0.00
2013-6-9,84.9,72.2,62.2,56.1,46.7,29.8,73,44,20,29.97,29.85,11,3,13,0.00
2013-6-10,73.4,69.3,64.4,55.9,48.1,42.3,73,49,34,29.88,29.85,9,5,9,0.00
2013-6-11,84.7,71.9,62.2,52.7,46.0,35.1,68,43,20,29.94,29.85,12,4,16,0.00
2013-6-12,95.4,77.9,61.2,52.5,44.3,31.5,69,35,20,30.00,29.91,9,3,12,0.00
2013-6-13,98.1,79.1,63.5,50.0,39.0,30.6,43,25,20,30.06,29.94,8,3,11,0.00
2013-6-14,91.0,76.5,63.1,45.1,39.8,33.4,52,29,20,30.00,29.97,13,3,17,0.00
2013-6-15,93.7,81.6,71.2,54.5,43.3,37.4,55,27,20,30.06,30.00,11,4,13,0.00
2013-6-16,92.7,80.1,67.3,57.7,48.1,39.4,62,37,20,30.06,30.00,10,3,12,0.00
2013-6-17,98.2,81.8,67.3,59.5,48.7,38.7,67,36,20,30.06,29.94,12,3,14,0.00
2013-6-18,90.0,75.8,72.3,53.8,50.2,43.3,52,42,20,30.00,29.97,3,0,4,0.00
2013-6-22,78.6,76.0,73.8,52.9,49.2,42.6,48,40,28,30.09,0.00,0,0,7,0.00
2013-6-23,93.9,78.0,69.6,60.3,47.7,-99.9,62,39,20,30.03,29.91,15,4,17,0.00
2013-6-24,82.4,72.9,66.6,56.3,49.7,35.8,65,47,20,29.94,29.85,13,5,18,0.00
2013-6-25,90.0,74.9,60.8,50.5,40.4,30.0,58,32,20,30.00,29.91,15,5,19,0.00
2013-6-26,83.7,68.7,62.4,52.2,45.7,34.5,64,46,20,30.06,29.97,9,2,14,0.00
2013-6-27,88.5,71.7,56.7,50.2,42.6,34.5,74,40,20,30.09,30.00,14,4,18,0.00
2013-6-28,85.8,71.5,61.9,56.3,44.2,32.9,67,42,20,30.03,29.94,10,4,16,0.01
2013-6-29,88.7,72.2,56.7,48.2,40.2,30.2,73,36,20,30.00,29.91,10,4,16,0.00
2013-6-30,91.0,74.3,58.3,44.2,37.6,28.8,53,28,20,30.06,30.00,14,4,16,0.00
2013-7-1,89.1,75.4,60.8,47.1,39.8,30.4,50,30,20,30.09,30.03,12,4,16,0.00
2013-7-2,93.9,78.3,64.2,49.5,42.3,34.2,52,30,20,30.09,30.00,12,4,16,0.00
2013-7-3,88.9,76.5,63.1,57.2,44.9,35.2,68,36,20,30.03,29.94,12,4,14,0.00
2013-7-4,90.9,74.4,62.6,61.5,51.3,37.4,80,50,20,30.03,29.94,10,3,12,0.46
2013-7-5,104.4,80.5,63.9,57.9,49.2,37.4,76,40,20,30.06,30.00,13,3,16,0.00
2013-7-6,101.5,82.2,68.9,55.0,46.4,36.1,49,31,20,30.06,30.00,14,2,16,0.00
2013-7-7,99.9,77.4,66.9,66.0,53.6,38.3,88,50,20,30.06,29.97,9,2,15,0.03
2013-7-8,97.7,76.8,64.8,70.3,53.9,40.1,80,51,20,30.09,30.00,10,2,15,0.30
2013-7-9,92.7,76.1,64.6,58.8,52.6,40.8,74,49,20,30.09,29.97,11,2,13,0.01
2013-7-10,96.8,78.0,64.6,62.8,52.1,39.9,74,46,20,29.97,29.82,12,3,16,0.04
2013-7-11,83.8,72.9,70.5,60.6,58.3,48.6,71,62,34,29.91,29.85,4,2,8,0.00
2013-7-12,95.7,82.3,68.5,61.7,51.2,40.1,68,39,20,30.00,29.91,11,4,15,0.00
2013-7-13,91.6,78.6,75.2,61.7,57.9,42.3,63,52,20,30.00,29.97,13,3,16,0.00
2013-7-14,97.2,82.3,69.8,64.2,53.4,43.3,67,41,20,30.00,29.91,13,3,15,0.01
2013-7-15,98.2,80.9,69.1,59.2,51.3,41.5,62,40,20,30.03,29.97,12,2,16,0.00
2013-7-16,97.5,82.6,69.3,59.7,49.1,38.5,60,35,20,30.06,30.00,12,3,15,0.00
2013-7-17,100.4,83.2,70.9,60.8,51.7,41.0,59,37,20,30.06,29.97,11,3,13,0.00
2013-7-18,96.6,82.4,70.7,63.9,53.7,42.3,69,41,20,30.06,30.00,13,3,16,0.00
2013-7-19,95.2,76.4,69.1,63.9,56.1,42.4,73,52,20,30.06,29.97,11,2,11,0.21
2013-7-20,98.1,77.6,65.3,59.9,48.5,-99.9,76,44,20,30.00,29.91,10,3,13,0.00
2013-7-21,100.9,62.1,69.3,68.4,17.4,-99.9,89,33,20,30.00,29.91,12,2,15,0.00
2013-7-22,100.6,80.8,64.9,64.0,53.1,41.5,71,44,20,30.00,29.88,12,3,15,0.00
2013-7-23,104.9,84.1,69.1,65.8,55.3,43.9,72,43,20,29.94,29.88,12,3,15,0.00
2013-7-24,102.4,84.9,70.9,66.6,54.1,43.0,75,41,20,30.03,29.94,14,4,17,0.00
2013-7-25,99.5,83.9,70.2,66.7,55.5,41.5,68,42,20,30.03,29.97,11,3,13,0.00
2013-7-26,101.3,86.2,73.4,66.9,54.3,42.1,70,38,20,30.00,29.91,11,3,15,0.00
2013-7-27,106.2,87.9,73.9,61.5,54.5,44.6,59,36,20,29.94,29.91,11,3,15,0.00
2013-7-28,104.2,88.5,73.2,65.1,53.5,43.9,66,34,20,30.03,29.94,12,3,15,0.00
2013-7-29,101.3,86.9,74.5,69.4,55.1,42.8,70,38,20,30.06,29.97,13,3,17,0.00
2013-7-30,102.0,86.7,74.5,69.1,52.1,40.8,71,35,20,30.00,29.88,9,4,12,0.00
2013-7-31,102.9,85.2,72.1,57.6,48.4,36.7,49,30,20,29.94,29.88,14,4,20,0.00
2013-8-1,104.5,86.6,72.0,57.7,48.1,34.3,49,28,20,30.00,29.91,5,2,8,0.00
2013-8-2,100.6,86.3,72.1,62.2,51.6,37.9,52,33,20,30.03,29.97,12,3,12,0.00
2013-8-3,105.4,87.2,73.4,59.5,51.4,39.6,59,33,20,30.06,30.00,12,4,16,0.00
2013-8-4,108.7,89.1,73.4,58.8,50.9,38.3,53,29,20,30.06,29.97,11,3,13,0.00
2013-8-5,108.9,86.5,72.9,58.8,44.5,-99.9,41,25,20,30.03,29.91,10,2,13,0.00
2013-8-6,103.5,89.7,76.3,58.5,49.6,38.5,41,27,20,29.97,29.91,10,3,12,0.00
2013-8-7,104.9,89.2,73.6,61.0,51.2,40.3,57,30,20,29.94,29.88,12,3,15,0.00
2013-8-8,106.0,89.8,73.9,56.5,48.2,37.8,43,25,20,29.94,29.88,12,3,15,0.00
2013-8-9,99.3,82.9,75.4,57.0,46.4,34.9,52,30,20,29.91,29.79,15,4,20,0.00
2013-8-10,102.6,84.2,70.3,57.6,49.7,39.2,57,34,20,29.88,29.76,9,3,13,0.00
2013-8-11,101.3,83.4,70.5,58.6,48.4,39.2,53,32,20,29.91,29.88,12,3,15,0.00
2013-8-12,102.0,84.4,69.1,57.9,46.7,36.7,53,29,20,29.97,29.91,13,3,15,0.00
2013-8-13,100.0,83.6,69.8,56.7,47.3,36.9,48,30,20,29.97,29.91,12,3,15,0.00
2013-8-14,95.2,80.5,70.0,63.0,50.7,39.7,68,40,20,29.94,29.88,12,2,13,0.00
2013-8-18,97.7,88.2,75.6,65.3,51.7,43.7,69,33,20,30.06,29.97,11,6,15,0.00
2013-8-19,99.7,82.4,69.4,65.5,54.4,42.4,74,44,20,30.03,29.94,13,4,18,0.00
2013-8-20,92.8,76.3,68.5,65.7,56.3,40.3,76,54,20,29.97,29.88,12,3,14,0.01
2013-8-21,102.0,78.7,66.2,57.6,50.5,38.7,66,41,20,29.97,29.91,8,2,14,0.00
2013-8-22,96.8,79.3,67.1,58.5,51.3,40.1,60,41,20,29.97,29.91,12,3,14,0.00
2013-8-23,98.8,81.1,66.7,59.0,48.8,39.2,60,36,20,29.97,29.91,12,3,15,0.00
2013-8-24,96.3,80.3,67.3,62.6,52.4,41.5,63,42,20,29.97,29.85,11,3,15,0.00
2013-8-25,94.5,78.6,69.6,90.0,62.7,53.4,91,60,32,29.88,29.76,10,3,12,0.00
2013-8-26,102.4,77.3,69.4,73.4,53.6,48.0,87,46,30,29.85,29.79,6,4,9,0.00
2013-8-27,81.0,79.9,70.9,61.5,52.1,50.7,69,39,35,29.85,29.79,5,5,5,0.00
2013-8-28,91.8,75.7,66.0,62.2,55.2,39.7,82,53,20,29.97,29.82,9,2,9,0.08
2013-8-29,92.8,77.3,64.9,59.7,51.6,40.1,74,46,20,30.06,29.94,9,2,12,0.00
2013-8-30,89.8,76.1,71.8,59.2,56.0,43.2,61,52,21,30.06,29.94,8,1,11,0.00
2013-8-31,90.5,77.3,65.5,58.6,52.4,39.0,70,46,20,30.03,29.97,11,3,14,0.00
2013-9-1,94.8,77.3,64.4,59.0,48.6,33.4,71,41,20,30.06,29.97,9,2,11,0.00
2013-9-2,97.0,78.4,64.4,56.1,49.5,39.7,69,41,20,30.15,30.03,10,2,13,0.00
2013-9-3,97.2,69.6,67.1,57.9,33.2,-99.9,60,36,20,30.17,30.12,10,2,13,0.00
2013-9-4,101.7,80.8,66.6,58.8,50.1,37.6,67,39,20,30.17,30.09,20,3,28,0.00
2013-9-5,100.2,80.4,66.6,58.1,48.9,37.6,56,37,20,30.12,29.94,12,2,16,0.00
2013-9-6,98.2,80.9,67.8,56.1,49.2,40.3,57,36,20,29.94,29.85,14,2,20,0.00
2013-9-7,100.4,80.4,68.2,61.2,52.4,41.0,65,42,20,30.09,29.94,13,3,16,0.00
2013-9-8,96.6,79.5,68.0,64.9,56.4,42.6,71,49,20,30.15,30.09,11,2,15,0.00
2013-9-9,88.0,77.5,72.3,66.2,57.9,45.3,75,53,27,30.12,30.03,12,4,16,0.03
2013-9-10,86.2,73.7,66.2,61.5,53.0,40.6,84,50,21,30.09,29.94,8,3,12,0.00
2013-9-11,83.3,72.9,64.9,61.5,55.0,45.1,88,57,29,29.97,29.91,16,5,20,0.00
2013-9-12,82.6,72.5,65.7,52.5,45.0,35.1,59,40,21,29.97,29.88,15,5,19,0.59
2013-9-13,91.0,71.8,58.8,50.5,44.9,35.4,69,42,20,30.09,29.94,11,3,13,0.00
2013-9-14,86.9,71.8,59.4,51.6,44.1,35.2,64,42,20,30.12,30.03,11,3,15,0.00
2013-9-15,78.4,66.7,61.9,66.2,54.3,44.1,99,67,33,30.06,29.79,10,1,14,2.29
2013-9-16,91.8,70.8,59.2,65.7,53.3,37.8,99,61,20,29.91,29.58,15,3,17,0.02
2013-9-17,81.3,71.1,63.5,55.2,48.6,34.2,64,48,20,29.58,29.47,15,5,20,0.00
2013-9-18,83.8,69.7,58.5,52.2,46.0,36.7,71,47,20,29.64,29.58,10,2,13,0.00
2013-9-19,79.7,67.8,60.3,53.8,49.8,47.5,75,54,33,29.70,29.55,7,1,9,0.00
2013-9-20,94.1,73.7,61.0,54.5,47.2,35.8,70,44,20,29.91,29.70,10,2,12,0.00
2013-9-21,94.5,74.9,62.1,55.0,48.6,38.5,72,45,20,30.00,29.88,11,2,13,0.00
2013-9-22,92.5,74.2,62.8,52.5,44.1,34.0,60,38,20,30.06,29.97,10,2,13,0.00
2013-9-23,91.2,71.2,59.2,51.3,41.3,30.7,62,37,20,30.03,29.94,10,3,12,0.00
2013-9-24,93.0,70.7,57.7,55.2,47.8,36.9,73,50,20,29.97,29.88,11,2,13,0.00
2013-9-25,88.2,70.8,57.2,54.3,48.9,38.5,76,50,20,29.91,29.85,10,2,13,0.00
2013-9-26,91.2,72.6,59.0,56.5,49.1,37.8,75,49,20,29.91,29.82,8,2,10,0.00
2013-9-27,91.8,73.5,61.2,57.4,49.8,39.4,74,49,20,29.88,29.82,11,2,13,0.00
2013-9-28,92.1,72.5,59.9,59.0,52.1,41.7,76,53,20,29.85,29.76,9,2,11,0.00
2013-9-29,85.5,71.6,66.2,64.4,57.9,54.5,81,63,37,29.76,29.55,8,2,14,0.29
2013-9-30,85.3,69.4,61.3,69.8,56.9,47.8,99,67,30,29.55,29.44,6,2,15,3.76
2013-10-1,87.8,71.2,59.2,61.0,52.0,37.6,99,58,20,29.64,29.53,6,2,8,0.00
2013-10-2,91.8,71.5,59.4,56.1,48.7,36.7,77,50,20,29.91,29.64,7,2,10,0.00
2013-10-3,88.9,70.0,58.5,49.3,44.0,34.5,61,43,20,30.09,29.91,10,3,12,0.00
2013-10-4,83.8,68.4,59.0,52.9,43.6,34.2,67,44,20,30.15,30.06,5,2,6,0.04
2013-10-5,112.6,77.5,62.4,99.9,63.4,46.0,91,65,45,30.06,29.88,13,2,21,1.64
2013-10-6,89.1,71.2,62.8,61.9,55.2,46.6,96,60,25,29.91,29.82,8,2,16,0.10
2013-10-7,80.6,68.5,62.8,61.7,55.3,48.0,83,64,34,29.97,29.88,5,1,8,0.15
2013-10-8,81.1,64.2,59.5,66.0,53.2,44.2,99,69,33,30.00,29.91,12,1,12,0.48
2013-10-9,70.7,62.9,59.2,57.4,54.7,47.3,92,76,44,30.00,29.88,3,0,4,0.10
2013-10-10,73.8,63.3,55.2,60.4,53.2,45.3,97,72,39,29.91,29.70,8,2,11,0.26
2013-10-11,79.7,66.9,60.1,55.4,50.5,46.0,74,57,34,29.91,29.67,8,2,10,0.02
2013-10-12,80.6,66.4,56.1,59.2,53.8,47.7,86,66,39,30.03,29.82,8,2,13,0.00
2013-10-13,88.5,69.2,57.6,58.5,48.8,36.7,96,57,20,30.03,29.97,4,1,6,0.00
2013-10-14,91.2,69.2,55.9,51.1,45.4,32.0,80,49,20,30.03,29.94,8,2,8,0.00
2013-10-15,78.1,66.8,58.8,56.1,48.6,39.0,66,54,27,30.00,29.79,5,1,12,0.00
2013-10-16,86.9,71.6,62.1,59.9,50.4,33.6,80,52,20,29.79,29.58,11,3,12,0.27
2013-10-17,88.3,66.9,52.0,49.3,41.5,28.8,80,46,20,29.88,29.73,6,1,8,0.00
2013-10-18,88.2,66.4,53.1,53.8,44.1,31.6,69,50,20,29.97,29.88,7,2,9,0.00
2013-10-19,88.2,67.5,57.6,54.0,48.0,33.1,83,56,20,30.12,29.97,6,1,9,0.00
2013-10-20,86.9,67.8,55.4,55.4,45.8,35.6,72,50,20,30.17,30.09,4,1,5,0.00
2013-10-21,81.0,70.9,64.4,54.5,52.0,46.6,65,52,32,30.12,30.06,4,1,8,0.00
2013-10-22,90.7,70.1,59.5,58.3,51.3,37.9,81,57,20,30.09,30.00,8,2,12,0.00
2013-10-23,88.3,68.5,58.3,61.5,53.7,39.9,99,64,20,30.03,29.97,7,1,11,0.00
2013-10-24,76.3,65.9,59.5,57.4,54.4,49.1,90,69,39,30.03,29.97,4,1,6,0.03
2013-10-25,87.6,70.6,59.5,61.0,53.0,43.2,86,58,23,30.06,30.00,5,1,6,0.01
2013-10-26,91.0,69.8,58.5,61.0,52.2,39.9,87,60,20,30.09,30.03,7,1,8,0.00
2013-10-27,87.4,67.4,60.6,58.6,53.5,42.1,88,64,22,30.15,30.06,0,0,0,0.00
2013-10-28,84.4,69.4,60.8,58.6,53.1,43.5,77,59,26,30.06,29.94,6,1,9,0.00
2013-10-29,83.3,69.1,58.1,58.8,53.0,46.8,96,60,30,29.97,29.85,8,1,10,0.00
2013-10-30,87.4,67.7,57.9,57.2,51.7,39.0,89,61,20,29.94,29.79,5,1,6,0.00
2013-10-31,86.4,67.8,57.7,54.5,47.8,36.9,83,54,20,30.03,29.91,6,1,8,0.00
2013-11-1,86.4,68.5,55.6,50.4,44.3,35.2,77,48,20,30.06,29.97,4,1,8,0.00
2013-11-2,79.7,66.0,56.7,56.5,50.0,41.4,76,59,27,30.00,29.88,7,2,12,0.00
2013-11-3,77.9,68.5,63.3,57.6,53.1,47.7,81,59,36,29.94,29.79,12,4,15,0.03
2013-11-4,77.0,67.4,62.8,55.8,48.0,36.0,73,52,24,29.82,29.44,10,4,13,0.01
2013-11-5,79.0,65.3,55.6,65.8,49.9,35.4,99,62,21,29.44,29.26,7,3,10,0.01
2013-11-6,81.0,61.4,49.5,52.9,44.9,36.5,99,61,21,29.76,29.41,5,1,9,0.00
2013-11-7,79.5,63.3,49.8,54.3,48.2,35.4,86,62,22,29.97,29.76,8,2,13,0.00
2013-11-8,80.1,66.5,58.8,55.6,51.6,46.6,84,61,34,29.97,29.94,8,2,13,0.00
2013-11-9,77.4,65.4,57.7,54.3,49.9,46.6,74,58,39,29.94,29.82,12,3,16,0.00
2013-11-10,71.1,61.1,50.5,51.8,45.2,35.6,81,57,28,29.85,29.35,20,5,23,0.72
2013-11-11,64.9,53.3,49.5,45.3,39.3,32.2,79,60,33,29.58,29.26,14,6,20,0.47
2013-11-12,64.0,54.1,48.6,52.2,45.6,40.5,92,74,44,29.82,29.58,6,1,8,0.29
2013-11-13,70.2,57.5,48.0,54.0,46.3,41.7,99,70,40,29.85,29.73,5,1,9,0.00
2013-11-14,84.0,61.4,52.0,48.4,44.8,33.3,80,58,20,29.85,29.73,5,1,6,0.00
2013-11-15,62.1,56.9,53.1,56.3,51.2,46.8,97,82,65,29.88,29.67,10,1,7,1.71
2013-11-16,67.8,57.8,50.2,61.0,47.0,37.4,99,71,34,29.97,29.85,3,1,6,0.00
2013-11-17,79.0,61.8,53.2,48.2,43.5,33.6,80,55,21,30.03,29.94,6,2,10,0.03
2013-11-18,68.2,59.0,50.5,47.1,41.1,35.6,82,55,31,29.97,29.55,8,2,13,0.00
2013-11-19,91.2,59.7,52.7,83.3,45.7,32.5,90,62,28,29.64,29.29,16,4,16,2.90
2013-11-20,103.6,75.2,53.2,99.5,61.9,33.1,92,64,35,29.61,29.14,15,3,17,2.59
2013-11-21,61.3,52.4,47.8,46.0,35.4,27.1,90,54,30,29.61,29.38,14,3,16,0.90
2013-11-22,54.5,49.1,46.6,46.4,40.9,31.6,91,75,49,29.41,29.26,8,2,13,0.78
2013-11-23,61.0,49.6,45.1,57.7,45.2,36.0,91,85,67,29.44,29.26,9,2,13,2.95
2013-11-24,61.7,48.1,41.9,50.7,35.9,27.7,86,64,29,29.58,29.41,7,1,11,0.00
2013-11-25,68.4,47.0,38.5,37.2,25.5,10.9,83,48,22,29.76,29.58,14,4,18,0.00
2013-11-26,54.5,41.6,35.2,20.3,16.6,11.7,53,37,26,29.88,29.76,12,6,28,0.00
2013-11-27,46.9,39.4,35.2,25.2,21.9,18.9,64,50,34,30.15,29.88,7,3,13,0.00
2013-11-28,48.2,40.0,30.4,36.9,26.5,17.2,82,61,31,30.17,30.09,8,3,13,0.19
2013-11-29,69.4,47.2,36.1,35.2,28.7,22.1,78,54,22,30.12,29.94,7,2,10,0.00
2013-11-30,69.6,47.5,34.7,33.4,28.6,21.7,86,54,22,29.94,29.70,4,1,8,0.00
2013-12-1,58.1,53.3,45.0,31.3,25.8,21.0,52,35,26,29.70,29.53,15,6,22,0.00
2013-12-2,83.8,59.9,52.5,43.5,32.3,27.0,56,37,20,30.00,29.58,10,3,21,0.00
2013-12-3,71.8,55.8,44.8,30.6,26.2,20.3,44,33,21,30.09,30.00,8,3,12,0.00
2013-12-4,74.7,50.3,38.3,39.4,28.0,17.1,80,46,21,30.15,30.06,5,1,7,0.00
2013-12-5,70.2,47.3,35.1,35.8,29.3,19.6,83,56,22,30.09,30.00,3,1,4,0.00
2013-12-6,52.7,43.3,40.5,36.0,31.2,29.8,66,63,51,30.00,29.82,2,0,4,0.00
2013-12-7,70.3,49.2,38.5,36.9,31.9,25.0,88,57,22,30.17,29.88,4,1,5,0.00
2013-12-8,71.4,50.6,38.7,40.1,32.9,25.9,75,53,22,30.26,30.17,4,1,6,0.00
2013-12-9,72.5,53.8,44.6,38.8,34.9,27.0,74,52,21,30.29,30.23,4,1,6,0.00
2013-12-10,69.4,48.1,38.7,37.0,32.7,26.6,86,60,22,30.38,30.26,4,1,5,0.00
2013-12-11,72.0,49.8,37.8,41.5,34.5,26.6,82,61,21,30.41,30.35,4,0,4,0.00
2013-12-12,70.5,49.3,40.8,40.3,36.6,30.0,93,67,26,30.38,30.23,4,1,5,0.00
2013-12-13,65.8,45.1,38.1,37.0,32.9,26.6,88,66,25,30.23,30.12,5,1,7,0.00
2013-12-14,57.9,45.3,37.4,37.8,35.1,29.7,89,70,36,30.26,30.17,4,1,6,0.00
2013-12-15,65.5,50.2,41.2,46.4,37.7,31.6,83,64,31,30.35,30.23,6,1,10,0.09
2013-12-16,69.6,47.5,35.8,35.1,30.3,22.3,83,58,22,30.41,30.32,4,1,5,0.00
2013-12-17,72.7,46.4,32.5,34.5,28.4,17.4,82,56,21,30.35,30.26,3,0,4,0.00
2013-12-18,69.8,45.1,32.4,36.7,27.6,17.6,83,56,22,30.29,30.15,3,1,4,0.00
2013-12-19,70.0,46.8,33.3,34.2,28.9,21.2,81,53,22,30.15,30.03,5,1,8,0.00
2013-12-20,55.8,53.0,51.3,46.0,39.4,30.7,81,61,43,30.35,30.03,6,2,11,0.07
2013-12-21,73.2,54.5,44.8,45.1,39.2,31.1,84,61,22,30.44,30.35,5,1,6,0.00
2013-12-22,67.8,50.6,44.6,41.4,37.5,30.7,83,63,27,30.41,30.29,4,1,4,0.00
2013-12-23,66.2,53.1,41.2,39.2,36.1,32.0,84,57,29,30.20,30.12,4,1,4,0.00
2013-12-24,61.3,43.0,38.7,40.1,37.9,30.4,97,83,67,30.09,29.85,3,0,4,0.43
2013-12-25,63.5,55.2,44.6,45.9,38.5,33.6,73,54,38,29.85,29.38,11,5,19,0.05
2013-12-26,75.4,55.1,48.9,68.7,42.2,34.3,83,62,48,29.38,29.08,15,6,27,0.96
2013-12-27,64.8,48.8,42.1,38.7,36.2,28.2,83,64,28,29.64,29.23,4,1,7,0.00
2013-12-28,70.0,48.5,39.6,41.0,37.3,25.9,88,69,23,29.79,29.64,4,1,8,0.00
2013-12-29,63.3,52.3,45.5,45.3,40.6,37.2,81,66,41,29.88,29.76,6,1,9,0.00
2013-12-30,51.1,48.6,47.7,44.4,41.4,36.1,88,77,62,29.91,29.85,5,1,9,1.00
2013-12-31,68.7,50.7,43.7,44.2,39.2,28.4,88,69,24,29.88,29.79,3,1,7,0.01
2014-1-1,46.4,42.9,39.7,37.6,33.8,32.4,85,71,64,29.88,29.82,2,0,4,0.00
2014-1-2,57.2,52.6,43.7,40.5,37.0,32.7,68,56,46,29.85,29.79,3,1,4,0.00